sat.trackr.live / text

‹ back to catalog

STARLINK-36068

NORAD 66845 · 2025-280AA

PAYLOAD ACTIVE UNKNOWN

§ Identity

Operator
Country
US
Launch date
2025-12-02
Launch site
AFWTR
Launch vehicle
Mass (kg)
RCS (m²)

Purposes: comms

External: N2YO · Heavens-Above · Gunter

§ Orbital elements

Epoch: 2026-05-25T03:48:48.542688Z

Period
96.11 min
Inclination
70.0003°
Eccentricity
0.0004137
Mean motion
14.98359811 rev/d
Perigee alt
569.1 km
Apogee alt
574.8 km
Semi-major
6,950.1 km
B*
4.8419e-4
RAAN
141.5091°
Arg perigee
248.2932°
Mean anomaly
111.7787°
Rev number
2,753

§ Raw data

STARLINK-360681 66845U 25280AA  26145.15889517  .00005694  00000+0  48419-3 0  99902 66845  70.0003 141.5091 0004137 248.2932 111.7787 14.98359811 27535

JSON: /api/v1/satellites/66845 · /tle

For live sub-satellite position, see the globe view (requires WebGL).

§ Visibility from observer

Set your observer location to see the next 7 days of passes ≥ 10°. The values pass through the URL so the page stays shareable.

No JS? Fill the form by hand. The geolocation button needs JavaScript.